AJ7DN Weather Reports


time (UTC)temp
C
wind
direction
speed
KPH
gust
KPH
rain 1hr
cm
rain 24hr
cm
rain mn
cm
humidity
%
barometer
mb
20260503181629 26 75 0.0 0.0 0.00 0.00 0.00 46 1015.4
20260503181125 26 141 1.6 3.2 0.00 0.00 0.00 48 1015.1
20260503180622 26 117 0.0 0.0 0.00 0.00 0.00 46 1015.5
20260503180120 26 73 0.0 0.0 0.00 0.00 0.00 46 1015.5
20260503175617 26 82 3.2 3.2 0.00 0.00 0.00 45 1015.5
20260503175114 25 59 0.0 0.0 0.00 0.00 0.00 46 1015.5
20260503174611 25 100 0.0 1.6 0.00 0.00 0.00 46 1015.5
20260503174108 25 116 0.0 0.0 0.00 0.00 0.00 51 1015.6
20260503173602 24 106 0.0 0.0 0.00 0.00 0.00 51 1015.5
20260503173059 23 124 0.0 0.0 0.00 0.00 0.00 53 1015.5
20260503172556 23 80 0.0 0.0 0.00 0.00 0.00 53 1015.6
20260503172054 23 64 0.0 0.0 0.00 0.00 0.00 54 1015.9
20260503171550 23 81 0.0 0.0 0.00 0.00 0.00 55 1015.8
20260503171048 22 78 0.0 1.6 0.00 0.00 0.00 55 1015.7
20260503170543 22 107 1.6 3.2 0.00 0.00 0.00 57 1015.7
20260503150936 16 102 0.0 0.0 0.00 0.00 0.00 83 1016.4
20260503150433 15 113 0.0 0.0 0.00 0.00 0.00 83 1016.3
20260503131326 12 119 0.0 0.0 0.00 0.00 0.00 94 1016.0
20260503130824 12 113 0.0 0.0 0.00 0.00 0.00 94 1016.1
20260503130321 12 124 0.0 0.0 0.00 0.00 0.00 94 1015.9
20260503110714 13 90 0.0 0.0 0.00 0.00 0.00 94 1016.2
20260503110211 13 145 0.0 0.0 0.00 0.00 0.00 95 1016.2
20260503100138 12 110 0.0 0.0 0.00 0.00 0.00 96 1016.3
20260503081532 12 117 0.0 0.0 0.00 0.00 0.00 93 1017.0
20260503081030 12 117 0.0 0.0 0.00 0.00 0.00 93 1016.9
20260503080526 13 117 0.0 0.0 0.00 0.00 0.00 93 1016.7
20260503072500 13 115 0.0 0.0 0.00 0.00 0.00 90 1016.9
20260503071957 13 115 0.0 0.0 0.00 0.00 0.00 90 1016.7
20260503071454 13 114 0.0 0.0 0.00 0.00 0.00 90 1016.8
20260503070949 13 128 0.0 0.0 0.00 0.00 0.00 90 1016.7
20260503070447 13 104 0.0 0.0 0.00 0.00 0.00 90 1016.9
20260503054906 15 142 0.0 0.0 0.00 0.03 0.03 88 1017.0
20260503054402 15 142 0.0 0.0 0.00 0.03 0.03 87 1017.0
20260503053900 15 142 0.0 0.0 0.00 0.03 0.03 87 1017.1
20260503053358 15 143 0.0 0.0 0.00 0.03 0.03 87 1017.1
20260503052854 15 127 0.0 0.0 0.00 0.03 0.03 86 1017.2
20260503052351 15 125 0.0 0.0 0.00 0.03 0.03 84 1016.9
20260503051847 15 149 0.0 0.0 0.00 0.03 0.03 84 1017.0
20260503051344 16 153 0.0 1.6 0.00 0.03 0.03 83 1017.0
20260503050841 16 124 0.0 0.0 0.00 0.03 0.03 81 1017.0
20260503050337 16 102 0.0 0.0 0.00 0.03 0.03 81 1016.8
20260503045834 16 110 0.0 0.0 0.00 0.03 0.03 80 1017.1
20260503045332 16 139 0.0 0.0 0.00 0.03 0.03 79 1016.7
20260503044828 17 112 0.0 0.0 0.00 0.03 0.03 79 1016.4
20260503044325 17 98 0.0 0.0 0.00 0.03 0.03 79 1016.7
20260503043822 17 102 0.0 0.0 0.00 0.03 0.03 78 1016.6
20260503043319 17 115 0.0 0.0 0.00 0.03 0.03 78 1016.4
20260503042815 17 113 0.0 0.0 0.00 0.03 0.03 77 1016.6
20260503042313 17 108 0.0 0.0 0.00 0.03 0.03 77 1016.3
20260503041808 17 101 0.0 1.6 0.00 0.03 0.03 77 1016.5
20260503041306 17 88 0.0 0.0 0.00 0.03 0.03 77 1016.5
20260503040804 17 112 0.0 0.0 0.00 0.03 0.03 77 1016.3
20260503040301 17 112 0.0 0.0 0.00 0.03 0.03 77 1016.4
20260503035757 17 108 0.0 0.0 0.00 0.03 0.03 77 1016.5
20260503035255 17 85 0.0 0.0 0.00 0.03 0.03 78 1016.5
20260503034752 17 86 0.0 0.0 0.00 0.03 0.03 78 1016.4
20260503034249 17 85 0.0 0.0 0.00 0.03 0.03 77 1016.5
20260503033746 17 85 0.0 0.0 0.00 0.03 0.03 77 1016.6
20260503033244 17 85 0.0 0.0 0.00 0.03 0.03 77 1016.5
20260503032742 17 85 0.0 0.0 0.00 0.03 0.03 76 1016.2
20260503032240 17 86 0.0 0.0 0.00 0.03 0.03 76 1016.3
20260503031737 17 94 0.0 0.0 0.00 0.03 0.03 76 1016.1
20260503031235 17 94 0.0 0.0 0.00 0.03 0.03 75 1016.1
20260503030731 18 94 0.0 0.0 0.00 0.03 0.03 75 1016.0
20260503030228 18 105 0.0 0.0 0.00 0.03 0.03 75 1016.0
20260503025724 17 88 0.0 0.0 0.00 0.03 0.03 75 1016.1
20260503025222 17 87 0.0 0.0 0.00 0.03 0.03 76 1016.0
20260503024719 17 99 0.0 0.0 0.00 0.03 0.03 76 1016.0
20260503024216 17 125 0.0 0.0 0.00 0.03 0.03 76 1016.1
20260503023713 18 102 0.0 0.0 0.00 0.03 0.03 76 1016.3
20260503023209 18 90 0.0 0.0 0.00 0.03 0.03 75 1016.2
20260503022706 18 157 0.0 0.0 0.00 0.03 0.03 75 1016.6
20260503022205 18 134 0.0 0.0 0.00 0.03 0.03 74 1016.4
20260503021703 18 134 0.0 0.0 0.00 0.03 0.03 74 1016.7
20260503021159 18 126 0.0 0.0 0.00 0.03 0.03 74 1017.0
20260503020656 18 102 1.6 1.6 0.00 0.03 0.03 73 1017.2
20260503020154 18 75 1.6 3.2 0.00 0.03 0.03 73 1017.4
20260503015650 18 67 3.2 3.2 0.00 0.03 0.03 72 1017.2
20260503015147 18 16 1.6 1.6 0.00 0.03 0.03 73 1017.3
20260503014643 18 69 1.6 1.6 0.00 0.03 0.03 73 1017.1
20260503014141 19 63 0.0 0.0 0.00 0.03 0.03 72 1016.6
20260503013638 19 66 0.0 0.0 0.00 0.03 0.03 72 1016.4
20260503013136 19 115 0.0 0.0 0.00 0.03 0.03 72 1016.4
20260503012633 19 98 0.0 0.0 0.00 0.03 0.03 73 1016.1
20260503012130 19 67 1.6 1.6 0.00 0.03 0.03 73 1016.3
20260503011626 18 84 1.6 1.6 0.00 0.03 0.03 72 1016.2
20260503011124 19 181 0.0 1.6 0.00 0.03 0.03 73 1016.2
20260503010619 19 99 0.0 0.0 0.00 0.03 0.03 71 1016.2
20260503010117 19 130 0.0 0.0 0.00 0.03 0.03 72 1016.1
20260503005614 19 107 0.0 0.0 0.00 0.03 0.03 71 1016.4
20260503005111 20 75 0.0 1.6 0.00 0.03 0.03 70 1016.1
20260503004607 20 215 0.0 0.0 0.00 0.03 0.03 69 1016.3
20260503004106 20 136 0.0 0.0 0.00 0.03 0.03 68 1016.1
20260503003602 20 102 0.0 0.0 0.00 0.03 0.03 66 1015.9
20260503003059 20 141 0.0 0.0 0.00 0.03 0.03 66 1016.0
20260503002556 20 192 0.0 0.0 0.00 0.03 0.03 67 1016.0
20260503002053 20 127 0.0 0.0 0.00 0.03 0.03 69 1016.1
20260503001549 20 197 0.0 1.6 0.00 0.03 0.03 67 1015.9
20260503001047 20 103 0.0 0.0 0.00 0.03 0.03 67 1016.0
20260503000544 20 107 0.0 0.0 0.00 0.03 0.03 66 1015.9
20260503000041 20 155 0.0 0.0 0.00 0.03 0.03 65 1016.1
20260502235537 21 113 0.0 0.0 0.00 0.03 0.03 62 1016.2
20260502235036 21 86 0.0 0.0 0.00 0.03 0.03 62 1015.9
20260502234531 21 170 0.0 0.0 0.00 0.03 0.03 61 1016.0
20260502234029 21 159 0.0 1.6 0.00 0.03 0.03 61 1016.1
20260502233529 21 143 0.0 0.0 0.00 0.03 0.03 62 1016.1
20260502233027 21 142 0.0 0.0 0.00 0.03 0.03 62 1016.4
20260502232523 21 160 0.0 0.0 0.00 0.03 0.03 60 1016.3
20260502232020 21 158 0.0 0.0 0.00 0.03 0.03 61 1016.4
20260502231517 21 194 0.0 0.0 0.00 0.03 0.03 59 1016.6
20260502231015 21 126 0.0 0.0 0.00 0.03 0.03 60 1016.6
20260502230513 21 122 0.0 0.0 0.00 0.03 0.03 61 1016.6
20260502230011 21 93 0.0 0.0 0.00 0.03 0.03 61 1016.9
20260502225511 21 111 0.0 0.0 0.00 0.03 0.03 62 1017.0
20260502225009 20 90 0.0 1.6 0.00 0.03 0.03 61 1016.9
20260502224505 20 80 0.0 0.0 0.00 0.03 0.03 62 1016.8
20260502224002 21 61 0.0 0.0 0.00 0.03 0.03 61 1017.0
20260502223459 21 100 0.0 0.0 0.00 0.03 0.03 61 1017.0
20260502222958 21 225 1.6 1.6 0.00 0.03 0.03 61 1017.2
20260502222455 21 182 1.6 1.6 0.00 0.03 0.03 61 1017.2
20260502221950 21 140 0.0 0.0 0.00 0.03 0.03 59 1017.3
20260502221447 21 99 0.0 0.0 0.00 0.03 0.03 61 1017.3
20260502220944 20 85 0.0 0.0 0.00 0.03 0.03 63 1017.4
20260502220440 20 96 0.0 0.0 0.00 0.03 0.03 63 1017.6
20260502215937 20 80 1.6 1.6 0.00 0.03 0.03 63 1017.5
20260502215434 20 71 0.0 1.6 0.00 0.03 0.03 61 1017.6
20260502214931 20 135 0.0 0.0 0.00 0.03 0.03 63 1017.8
20260502214428 20 172 0.0 1.6 0.00 0.03 0.03 64 1017.5
20260502213925 20 130 0.0 0.0 0.00 0.03 0.03 64 1018.0
20260502213421 20 78 0.0 0.0 0.00 0.03 0.03 64 1017.9
20260502212920 20 98 0.0 0.0 0.00 0.03 0.03 63 1018.0
20260502212419 19 130 0.0 0.0 0.00 0.03 0.03 64 1018.1
20260502211915 18 71 0.0 0.0 0.00 0.03 0.03 66 1018.3
20260502211411 17 156 1.6 1.6 0.00 0.03 0.03 68 1018.2
20260502210909 17 167 1.6 1.6 0.00 0.03 0.03 70 1018.3
20260502210405 17 80 1.6 1.6 0.00 0.03 0.03 70 1018.5
20260502205903 17 46 1.6 1.6 0.00 0.03 0.03 70 1018.5
20260502205358 17 70 0.0 0.0 0.00 0.03 0.03 70 1018.6
20260502204856 17 86 1.6 1.6 0.00 0.03 0.03 69 1018.8
20260502204353 17 70 1.6 1.6 0.00 0.03 0.03 69 1018.7
20260502203850 17 78 0.0 0.0 0.00 0.03 0.03 70 1018.9
20260502203348 17 180 0.0 0.0 0.00 0.03 0.03 70 1018.9
20260502202843 17 104 0.0 0.0 0.00 0.03 0.03 71 1019.0
20260502202341 16 162 0.0 0.0 0.00 0.03 0.03 73 1019.2
20260502201839 16 132 0.0 0.0 0.00 0.03 0.03 74 1019.4
20260502201335 16 42 1.6 1.6 0.00 0.03 0.03 74 1019.5
20260502200831 15 117 0.0 0.0 0.00 0.03 0.03 75 1019.3
20260502200327 15 83 0.0 1.6 0.00 0.03 0.03 76 1019.2
20260502195825 15 105 0.0 1.6 0.00 0.03 0.03 75 1019.6
20260502195321 15 195 4.8 4.8 0.00 0.03 0.03 76 1019.8
20260502194818 15 78 0.0 1.6 0.00 0.03 0.03 75 1019.5
20260502194315 15 58 0.0 1.6 0.00 0.03 0.03 76 1019.5
20260502193811 15 123 0.0 0.0 0.00 0.03 0.03 78 1019.5
20260502193308 15 187 1.6 3.2 0.00 0.03 0.03 79 1019.5
20260502192804 14 70 0.0 1.6 0.00 0.03 0.03 77 1019.6
20260502192304 14 42 0.0 1.6 0.00 0.03 0.03 79 1019.8
20260502191758 14 123 0.0 0.0 0.00 0.03 0.03 80 1020.0
20260502191256 13 135 0.0 0.0 0.00 0.03 0.03 81 1019.9
20260502190753 13 114 0.0 0.0 0.00 0.03 0.03 81 1019.9
20260502190250 13 85 1.6 1.6 0.00 0.03 0.03 81 1019.9
20260502185751 13 131 0.0 0.0 0.00 0.03 0.03 83 1020.2
20260502185247 13 145 0.0 0.0 0.00 0.03 0.03 81 1020.5
20260502184744 13 139 0.0 0.0 0.00 0.03 0.03 82 1020.2
20260502184239 13 135 0.0 1.6 0.00 0.03 0.03 84 1020.5
20260502183737 13 134 0.0 0.0 0.00 0.03 0.03 85 1020.2
20260502183232 13 133 0.0 1.6 0.00 0.03 0.03 84 1020.3
20260502182727 13 162 1.6 1.6 0.00 0.03 0.03 84 1020.2
20260502182223 12 120 0.0 0.0 0.13 0.03 0.03 85 1020.1